Weather History for Manhattan, KS

Change the Weather History Date:

Saturday, March 24, 2012

  Actual Average Record
Temperature  
Mean Temperature 59 °F 46 °F  
Max Temperature 76 °F 60 °F 78 °F (2007)
Min Temperature 41 °F 33 °F 21 °F (2006)
Degree Days  
Heating Degree Days 6 19  
Month to date heating degree days 265 557  
Since 1 July heating degree days 3959 4717  
Cooling Degree Days 0 0  
Month to date cooling degree days 26 0  
Year to date cooling degree days 26 0  
Growing Degree Days 8 (Base 50)    
Moisture  
Dew Point 45 °F    
Average Humidity 66    
Maximum Humidity 100    
Minimum Humidity 31    
Precipitation  
Precipitation 0.00 in 0.06 in 0.33 in (2014)
Month to date precipitation 2.17 1.74  
Year to date precipitation 4.07 3.46  
Sea Level Pressure  
Sea Level Pressure 30.00 in    
Wind  
Wind Speed 3 mph (WSW)    
Max Wind Speed 9 mph    
Max Gust Speed 14 mph    
Visibility 9 miles    
Events      
T = Trace of Precipitation, MM = Missing Value Source: NWS Daily Summary

Daily Weather History Graph

Daily Weather History Graph

Search for Another Location

Airport:

Trip Planner

Search our weather history database for the weather conditions in past years. The results will help you decide how hot, cold, wet, or windy it might be!

Date:

Astronomy

Mar. 24, 2012 Rise Set
Actual Time 7:23 AM CDT 7:43 PM CDT
Civil Twilight 6:56 AM CDT 8:09 PM CDT
Nautical Twilight 6:24 AM CDT 8:41 PM CDT
Astronomical Twilight 5:52 AM CDT 9:13 PM CDT
Moon 8:03 AM CDT (3/24) 10:02 PM CDT (3/24)
Length of Visible Light 13h 13m
Length of Day
12h 20m
Waxing Crescent, 4% of the Moon is Illuminated
Mar 24
Waxing Crescent
Mar 30
First Quarter
Apr 6
Full
Apr 13
Last Quarter
Apr 21
New

Hourly Weather History & Observations

Time (CDT) Temp. Windchill Dew Point Humidity Pressure Visibility Wind Dir Wind Speed Gust Speed Precip Events Conditions
12:52 AM 46.9 °F - 45.0 °F 93% 29.98 in 10.0 mi Calm Calm - N/A   Clear
1:52 AM 48.0 °F - 45.0 °F 89% 29.97 in 10.0 mi SW 6.9 mph - N/A   Clear
2:52 AM 48.0 °F - 45.0 °F 89% 29.97 in 10.0 mi WSW 6.9 mph - N/A   Clear
3:52 AM 45.0 °F - 44.1 °F 97% 29.97 in 10.0 mi Calm Calm - N/A   Clear
4:52 AM 44.1 °F - 43.0 °F 96% 29.98 in 9.0 mi Calm Calm - N/A   Clear
5:08 AM 41.0 °F - 41.0 °F 100% 29.98 in 2.0 mi Calm Calm - N/A   Clear
5:16 AM 42.8 °F - 41.0 °F 93% 29.98 in 7.0 mi Calm Calm - N/A   Clear
5:52 AM 43.0 °F 41.3 °F 42.1 °F 97% 29.99 in 6.0 mi SSW 3.5 mph - N/A   Clear
6:52 AM 42.1 °F - 42.1 °F 100% 30.01 in 7.0 mi Calm Calm - N/A   Clear
7:52 AM 44.1 °F - 43.0 °F 96% 30.02 in 5.0 mi Calm Calm - 0.01 in   Clear
8:52 AM 48.9 °F - 46.0 °F 90% 30.04 in 9.0 mi SW 5.8 mph - N/A   Clear
9:52 AM 54.0 °F - 48.9 °F 83% 30.03 in 10.0 mi South 4.6 mph - N/A   Clear
10:52 AM 61.0 °F - 50.0 °F 67% 30.03 in 10.0 mi South 4.6 mph - N/A   Clear
11:52 AM 68.0 °F - 46.9 °F 47% 30.02 in 10.0 mi West 3.5 mph - N/A   Clear
12:52 PM 71.1 °F - 46.0 °F 41% 30.01 in 10.0 mi Calm Calm - N/A   Clear
1:52 PM 73.0 °F - 46.0 °F 38% 30.00 in 10.0 mi WSW 4.6 mph - N/A   Clear
2:52 PM 75.0 °F - 44.1 °F 33% 29.98 in 10.0 mi West 4.6 mph - N/A   Clear
3:52 PM 75.9 °F - 43.0 °F 31% 29.97 in 10.0 mi Variable 3.5 mph - N/A   Clear
4:52 PM 75.2 °F - 44.6 °F 34% 29.98 in 10.0 mi SW 4.6 mph - N/A   Clear
5:52 PM 75.9 °F - 43.0 °F 31% 29.98 in 10.0 mi West 5.8 mph - N/A   Clear
6:52 PM 75.0 °F - 43.0 °F 32% 29.98 in 10.0 mi Calm Calm - N/A   Clear
7:52 PM 70.0 °F - 44.1 °F 39% 29.99 in 10.0 mi WNW 3.5 mph - N/A   Clear
8:52 PM 57.9 °F - 46.0 °F 65% 30.01 in 10.0 mi Calm Calm - N/A   Clear
9:52 PM 55.0 °F - 46.9 °F 74% 30.02 in 10.0 mi Calm Calm - N/A   Clear
10:52 PM 52.0 °F - 46.9 °F 83% 30.04 in 10.0 mi Calm Calm - N/A   Clear
11:52 PM 48.9 °F - 46.0 °F 90% 30.04 in 10.0 mi Calm Calm - N/A   Clear